Location: ??
(34.6664°N, 135.8063°E)
Time: 05:05:48
(UTC+00:00)

Daily predictions for brighter satellites

Satellite Brightness Start Highest point End
(mag) Time Altitude Azimuth Time Altitude Azimuth Time Altitude Azimuth
NOAA 11 4.2 08:33:04 10° SSE 08:38:32 75° ENE 08:44:02 10° N
TIMED 4.5 08:34:20 10° NNW 08:38:42 76° ENE 08:43:03 10° SSE
H-2A R/B 2.9 08:34:48 10° S 08:38:43 67° W 08:42:48 10° NNW
COSMO-SKYMED 1 2.9 08:36:32 10° NNE 08:40:43 46° E 08:44:52 10° S
BREEZE-M DEB (TANK) 3.1 08:42:57 10° NW 08:45:36 26° NNE 08:47:36 10° E
CZ-2D R/B 4.1 08:42:36 10° SE 08:45:56 28° ENE 08:49:15 10° NNE
CSL-04 DEB 4.4 08:43:45 10° NNE 08:47:55 89° E 08:51:57 10° SSW
Okean-O 4.0 08:45:54 10° ESE 08:48:54 18° ENE 08:51:54 10° NNE
Okean O Rocket 1.8 08:45:57 10° S 08:50:24 79° WSW 08:54:52 10° NNW
X-37B 1.6 08:50:01 10° W 08:53:02 38° NNW 08:56:03 10° NE
Nadezhda 4 Rocket 4.2 08:49:27 10° SSE 08:55:28 51° E 09:01:27 10° NNE
IRS-1C Rocket 4.4 08:56:33 10° SE 09:01:28 42° ENE 09:06:23 10° N
Cosmos 1943 3.8 08:56:56 10° NNW 09:02:32 63° WSW 09:08:04 10° S
CZ-2C R/B 4.1 08:59:41 10° NE 09:03:24 18° E 09:07:09 10° SE
Helios 1A Rocket 4.3 09:00:52 10° ESE 09:03:42 18° ENE 09:06:33 10° NNE
YAOGAN 1 3.5 09:03:22 10° SE 09:06:58 26° ENE 09:10:35 10° NNE
Cosmos 1844 3.7 09:01:48 10° S 09:07:20 66° ESE 09:13:00 10° NNE
Cosmos 1892 Rocket 4.1 09:03:29 10° SSW 09:07:47 62° W 09:12:05 10° N
Meteor 2-13 Rocket 4.4 09:03:17 10° S 09:09:17 64° E 09:15:20 10° NNE
Cosmos 1606 Rocket 4.4 09:07:10 10° NNW 09:11:28 54° W 09:15:46 10° S
ISS -2.0 09:08:52 10° W 09:11:45 26° NW 09:14:36 10° NNE
H-2A R/B 4.3 09:08:13 10° NNW 09:11:48 25° WNW 09:15:19 10° WSW
COSMOS 2455 3.8 09:08:23 10° SW 09:14:08 47° WNW 09:19:57 10° NNE
NOSS 2-1 (E) 3.6 09:13:49 10° S 09:17:04 35° ESE 09:18:29 23° ENE
ATLAS 3B R/B 4.1 09:11:21 10° NW 09:17:58 44° WSW 09:24:49 10° S
Cosmos 1340 3.7 09:15:11 10° SSE 09:18:16 25° E 09:19:12 22° ENE
Cosmos 1455 2.6 09:14:56 10° N 09:18:32 38° E 09:22:07 10° SSE
Feng Yun 1-1 Rocket 4.1 09:13:23 10° SSE 09:18:46 86° ENE 09:24:16 10° NNW
H-2A R/B 2.4 09:15:10 10° SE 09:19:41 37° ENE 09:24:18 10° N
CZ-2C R/B 3.0 09:15:51 10° SSE 09:20:59 72° ENE 09:26:28 10° N
Cosmos 1703 3.6 09:18:58 10° SSE 09:22:38 42° E 09:25:50 13° NNE
Cosmos 1898 Rocket 4.0 09:18:07 10° S 09:23:01 40° E 09:26:53 15° NE
SJ 16-02 1.5 09:19:06 10° SSW 09:23:30 74° WNW 09:27:55 10° NNE
Cosmos 1844 Rocket 3.1 09:21:42 10° SSW 09:27:19 65° WNW 09:32:56 10° NNE
Cosmos 1680 Rocket 4.4 09:25:26 10° N 09:29:48 26° ENE 09:30:52 24° E
Aureole 2 Rocket 4.3 09:27:25 10° SW 09:29:55 24° WNW 09:32:29 10° N
Cosmos 2026 Rocket 4.2 09:26:43 10° SSE 09:32:26 45° E 09:38:14 10° NNE
ERS-2 2.6 09:29:33 10° N 09:33:07 59° WNW 09:36:41 10° SSW
Meteor 1-21 Rocket 4.1 09:31:21 10° S 09:36:52 88° W 09:42:26 10° N
Cosmos 2278 Rocket 3.3 09:33:42 10° SSE 09:37:50 23° ESE 09:37:50 23° ESE
SJ-11-01 4.3 09:34:58 10° SSE 09:39:30 53° ENE 09:44:04 10° N
Cosmos 1689 Rocket 2.6 09:38:36 16° N 09:40:42 55° WNW 09:43:28 10° SSW
MOS 1 Rocket 4.3 09:39:21 10° N 09:43:24 42° WNW 09:47:25 10° SW
Cosmos 2058 Rocket 4.1 09:40:07 10° NNW 09:44:28 50° W 09:48:49 10° SSW
CZ-4B R/B 4.4 09:43:58 10° NNW 09:46:03 16° WNW 09:48:07 10° WSW
Meteor 2-10 Rocket 4.3 09:41:43 10° NNW 09:47:00 54° W 09:52:03 10° S
Iridium 4 Rocket 3.6 09:42:38 10° N 09:48:03 51° E 09:52:59 10° SSE
CSL-04 Rocket 3.8 09:45:18 10° SE 09:50:26 50° ENE 09:55:41 10° N
Cosmos 1328 3.6 09:46:29 10° S 09:50:29 71° E 09:52:02 35° NNE
CZ-4 R/B 1.7 09:49:29 10° S 09:53:36 68° W 09:57:39 10° NNW
Cosmos 1937 Rocket 3.5 09:52:00 10° S 09:57:11 61° ESE 09:59:03 38° NE
Cosmos 2195 Rocket 4.5 09:51:50 10° S 09:58:08 90° SW 10:04:31 10° N
Cosmos 1626 Rocket 4.5 09:55:48 10° SSW 10:00:00 49° W 10:04:16 10° N
Hubble Space Telescope 1.8 09:57:40 10° WSW 10:01:26 34° S 10:01:59 33° SSE
Cosmos 44 3.7 09:57:55 10° SW 10:02:29 58° WNW 10:05:04 26° N
Meteor 2-8 Rocket 4.3 09:56:52 10° N 10:02:56 65° E 10:08:59 10° SSE
Milstar 3 4.4 09:59:45 10° SSW 10:05:01 18° SSE 10:07:00 16° SE
NOSS 2-1 (C) 4.0 10:03:03 10° SW 10:06:21 39° WNW 10:06:46 37° NW
Cosmos 2112 Rocket 4.5 10:02:32 10° N 10:06:24 41° NNE 10:06:24 41° NNE
Cosmos 1627 Rocket 4.5 10:03:06 10° S 10:09:14 83° W 10:15:30 10° N
Aureole 3 4.5 10:07:04 10° NNW 10:09:58 32° W 10:12:39 10° SSW
NOSS 2-1 (D) 4.3 10:09:05 10° WSW 10:12:15 32° NW 10:12:30 32° NW
Cosmos 1428 Rocket 4.5 10:06:12 10° S 10:12:27 84° W 10:18:47 10° N
DMSP B5D2-2 4.3 10:14:04 50° SE 10:14:04 50° SE 10:18:24 10° S
USA 267 3.2 10:10:27 37° NE 10:13:19 89° SE 10:19:52 10° SW
Lacrosse 5 2.0 10:13:21 10° NNW 10:17:38 56° N 10:17:38 56° N
Cosmos 1758 Rocket 3.7 10:17:49 10° S 10:21:48 69° SW 10:21:48 69° SW
Centaur D-1AR AC-48 3.7 10:16:37 10° WSW 10:23:57 24° SSW 10:25:22 21° SSE
Okean-O 4.2 10:21:03 10° SSW 10:25:04 34° W 10:29:07 10° NNW
ARGOS 3.4 10:22:45 10° S 10:28:03 67° WSW 10:33:24 10° NNW
CZ-2C R/B 3.4 10:40:43 24° N 10:43:53 51° WNW 10:49:16 10° SSW
H-2A R/B 4.4 10:55:36 10° SW 10:59:12 20° W 11:02:51 10° NW
Cosmos 2278 Rocket 3.8 11:16:32 10° SW 11:19:45 30° WSW 11:19:45 30° WSW
